Year,Month,Day,Hour,Minute,Value (Times are PST for temperature in C)
2013,06,09,00,00,13.90
2013,06,09,00,01,13.90
2013,06,09,00,02,13.90
2013,06,09,00,03,13.90
2013,06,09,00,04,13.90
2013,06,09,00,05,13.90
2013,06,09,00,06,13.90
2013,06,09,00,07,13.90
2013,06,09,00,08,13.90
2013,06,09,00,09,13.90
2013,06,09,00,10,13.90
2013,06,09,00,11,13.90
2013,06,09,00,12,13.90
2013,06,09,00,13,13.90
2013,06,09,00,14,13.90
2013,06,09,00,15,13.90
2013,06,09,00,16,13.80
2013,06,09,00,17,13.80
2013,06,09,00,18,13.80
2013,06,09,00,19,13.80
2013,06,09,00,20,13.80
2013,06,09,00,21,13.70
2013,06,09,00,22,13.70
2013,06,09,00,23,13.70
2013,06,09,00,24,13.70
2013,06,09,00,25,13.60
2013,06,09,00,26,13.60
2013,06,09,00,27,13.60
2013,06,09,00,28,13.60
2013,06,09,00,29,13.60
2013,06,09,00,30,13.50
2013,06,09,00,31,13.50
2013,06,09,00,32,13.40
2013,06,09,00,33,13.40
2013,06,09,00,34,13.30
2013,06,09,00,35,13.20
2013,06,09,00,36,13.20
2013,06,09,00,37,13.10
2013,06,09,00,38,13.00
2013,06,09,00,39,12.90
2013,06,09,00,40,12.90
2013,06,09,00,41,12.80
2013,06,09,00,42,12.70
2013,06,09,00,43,12.60
2013,06,09,00,44,12.50
2013,06,09,00,45,12.40
2013,06,09,00,46,12.30
2013,06,09,00,47,12.20
2013,06,09,00,48,12.10
2013,06,09,00,49,12.10
2013,06,09,00,50,12.00
2013,06,09,00,51,12.00
2013,06,09,00,52,11.90
2013,06,09,00,53,11.90
2013,06,09,00,54,11.90
2013,06,09,00,55,11.90
2013,06,09,00,56,11.90
2013,06,09,00,57,11.90
2013,06,09,00,58,11.90
2013,06,09,00,59,11.90
2013,06,09,01,00,11.90
2013,06,09,01,01,11.90
2013,06,09,01,02,11.80
2013,06,09,01,03,11.80
2013,06,09,01,04,11.80
2013,06,09,01,05,11.80
2013,06,09,01,06,11.80
2013,06,09,01,07,11.80
2013,06,09,01,08,11.80
2013,06,09,01,09,11.80
2013,06,09,01,10,11.80
2013,06,09,01,11,11.80
2013,06,09,01,12,11.80
2013,06,09,01,13,11.70
2013,06,09,01,14,11.70
2013,06,09,01,15,11.70
2013,06,09,01,16,11.70
2013,06,09,01,17,11.70
2013,06,09,01,18,11.70
2013,06,09,01,19,11.70
2013,06,09,01,20,11.70
2013,06,09,01,21,11.70
2013,06,09,01,22,11.70
2013,06,09,01,23,11.70
2013,06,09,01,24,11.70
2013,06,09,01,25,11.70
2013,06,09,01,26,11.70
2013,06,09,01,27,11.70
2013,06,09,01,28,11.70
2013,06,09,01,29,11.70
2013,06,09,01,30,11.70
2013,06,09,01,31,11.70
2013,06,09,01,32,11.70
2013,06,09,01,33,11.70
2013,06,09,01,34,11.60
2013,06,09,01,35,11.60
2013,06,09,01,36,11.60
2013,06,09,01,37,11.60
2013,06,09,01,38,11.60
2013,06,09,01,39,11.50
2013,06,09,01,40,11.50
2013,06,09,01,41,11.50
2013,06,09,01,42,11.50
2013,06,09,01,43,11.40
2013,06,09,01,44,11.40
2013,06,09,01,45,11.40
2013,06,09,01,46,11.40
2013,06,09,01,47,11.40
2013,06,09,01,48,11.40
2013,06,09,01,49,11.40
2013,06,09,01,50,11.40
2013,06,09,01,51,11.50
2013,06,09,01,52,11.50
2013,06,09,01,53,11.50
2013,06,09,01,54,11.50
2013,06,09,01,55,11.50
2013,06,09,01,56,11.50
2013,06,09,01,57,11.50
2013,06,09,01,58,11.50
2013,06,09,01,59,11.50
2013,06,09,02,00,11.60
2013,06,09,02,01,11.60
2013,06,09,02,02,11.60
2013,06,09,02,03,11.60
2013,06,09,02,04,11.60
2013,06,09,02,05,11.60
2013,06,09,02,06,11.60
2013,06,09,02,07,11.60
2013,06,09,02,08,11.60
2013,06,09,02,09,11.60
2013,06,09,02,10,11.60
2013,06,09,02,11,11.70
2013,06,09,02,12,11.70
2013,06,09,02,13,11.70
2013,06,09,02,14,11.70
2013,06,09,02,15,11.70
2013,06,09,02,16,11.60
2013,06,09,02,17,11.60
2013,06,09,02,18,11.50
2013,06,09,02,19,11.40
2013,06,09,02,20,11.40
2013,06,09,02,21,11.30
2013,06,09,02,22,11.30
2013,06,09,02,23,11.20
2013,06,09,02,24,11.20
2013,06,09,02,25,11.10
2013,06,09,02,26,11.10
2013,06,09,02,27,11.10
2013,06,09,02,28,11.00
2013,06,09,02,29,11.00
2013,06,09,02,30,11.00
2013,06,09,02,31,10.90
2013,06,09,02,32,10.90
2013,06,09,02,33,10.90
2013,06,09,02,34,10.90
2013,06,09,02,35,10.90
2013,06,09,02,36,10.90
2013,06,09,02,37,10.90
2013,06,09,02,38,10.90
2013,06,09,02,39,10.90
2013,06,09,02,40,10.80
2013,06,09,02,41,10.80
2013,06,09,02,42,10.80
2013,06,09,02,43,10.80
2013,06,09,02,44,10.80
2013,06,09,02,45,10.70
2013,06,09,02,46,10.70
2013,06,09,02,47,10.70
2013,06,09,02,48,10.60
2013,06,09,02,49,10.60
2013,06,09,02,50,10.60
2013,06,09,02,51,10.50
2013,06,09,02,52,10.50
2013,06,09,02,53,10.50
2013,06,09,02,54,10.40
2013,06,09,02,55,10.40
2013,06,09,02,56,10.40
2013,06,09,02,57,10.40
2013,06,09,02,58,10.40
2013,06,09,02,59,10.30
2013,06,09,03,00,10.30
2013,06,09,03,01,10.30
2013,06,09,03,02,10.30
2013,06,09,03,03,10.20
2013,06,09,03,04,10.20
2013,06,09,03,05,10.20
2013,06,09,03,06,10.20
2013,06,09,03,07,10.20
2013,06,09,03,08,10.20
2013,06,09,03,09,10.20
2013,06,09,03,10,10.20
2013,06,09,03,11,10.10
2013,06,09,03,12,10.10
2013,06,09,03,13,10.10
2013,06,09,03,14,10.20
2013,06,09,03,15,10.20
2013,06,09,03,16,10.20
2013,06,09,03,17,10.20
2013,06,09,03,18,10.20
2013,06,09,03,19,10.10
2013,06,09,03,20,10.10
2013,06,09,03,21,10.10
2013,06,09,03,22,10.10
2013,06,09,03,23,10.10
2013,06,09,03,24,10.20
2013,06,09,03,25,10.20
2013,06,09,03,26,10.20
2013,06,09,03,27,10.20
2013,06,09,03,28,10.20
2013,06,09,03,29,10.20
2013,06,09,03,30,10.20
2013,06,09,03,31,10.20
2013,06,09,03,32,10.10
2013,06,09,03,33,10.10
2013,06,09,03,34,10.10
2013,06,09,03,35,10.10
2013,06,09,03,36,10.20
2013,06,09,03,37,10.20
2013,06,09,03,38,10.20
2013,06,09,03,39,10.10
2013,06,09,03,40,10.10
2013,06,09,03,41,10.10
2013,06,09,03,42,10.10
2013,06,09,03,43,10.10
2013,06,09,03,44,10.10
2013,06,09,03,45,10.10
2013,06,09,03,46,10.10
2013,06,09,03,47,10.10
2013,06,09,03,48,10.00
2013,06,09,03,49,10.00
2013,06,09,03,50,10.00
2013,06,09,03,51,9.90
2013,06,09,03,52,9.90
2013,06,09,03,53,9.90
2013,06,09,03,54,9.90
2013,06,09,03,55,9.90
2013,06,09,03,56,9.80
2013,06,09,03,57,9.80
2013,06,09,03,58,9.80
2013,06,09,03,59,9.80
2013,06,09,04,00,9.80
2013,06,09,04,01,9.80
2013,06,09,04,02,9.80
2013,06,09,04,03,9.80
2013,06,09,04,04,9.80
2013,06,09,04,05,9.80
2013,06,09,04,06,9.80
2013,06,09,04,07,9.80
2013,06,09,04,08,9.80
2013,06,09,04,09,9.80
2013,06,09,04,10,9.80
2013,06,09,04,11,9.80
2013,06,09,04,12,9.80
2013,06,09,04,13,9.80
2013,06,09,04,14,9.80
2013,06,09,04,15,9.80
2013,06,09,04,16,9.80
2013,06,09,04,17,9.80
2013,06,09,04,18,9.80
2013,06,09,04,19,9.80
2013,06,09,04,20,9.80
2013,06,09,04,21,9.80
2013,06,09,04,22,9.70
2013,06,09,04,23,9.70
2013,06,09,04,24,9.70
2013,06,09,04,25,9.70
2013,06,09,04,26,9.70
2013,06,09,04,27,9.70
2013,06,09,04,28,9.70
2013,06,09,04,29,9.70
2013,06,09,04,30,9.70
2013,06,09,04,31,9.80
2013,06,09,04,32,9.80
2013,06,09,04,33,9.80
2013,06,09,04,34,9.80
2013,06,09,04,35,9.80
2013,06,09,04,36,9.80
2013,06,09,04,37,9.80
2013,06,09,04,38,9.80
2013,06,09,04,39,9.80
2013,06,09,04,40,9.80
2013,06,09,04,41,9.90
2013,06,09,04,42,9.90
2013,06,09,04,43,9.90
2013,06,09,04,44,9.90
2013,06,09,04,45,10.00
2013,06,09,04,46,10.00
2013,06,09,04,47,10.00
2013,06,09,04,48,10.10
2013,06,09,04,49,10.10
2013,06,09,04,50,10.20
2013,06,09,04,51,10.20
2013,06,09,04,52,10.20
2013,06,09,04,53,10.30
2013,06,09,04,54,10.30
2013,06,09,04,55,10.30
2013,06,09,04,56,10.30
2013,06,09,04,57,10.30
2013,06,09,04,58,10.40
2013,06,09,04,59,10.40
2013,06,09,05,00,10.40
2013,06,09,05,01,10.40
2013,06,09,05,02,10.40
2013,06,09,05,03,10.40
2013,06,09,05,04,10.40
2013,06,09,05,05,10.40
2013,06,09,05,06,10.40
2013,06,09,05,07,10.30
2013,06,09,05,08,10.30
2013,06,09,05,09,10.30
2013,06,09,05,10,10.30
2013,06,09,05,11,10.30
2013,06,09,05,12,10.30
2013,06,09,05,13,10.30
2013,06,09,05,14,10.30
2013,06,09,05,15,10.30
2013,06,09,05,16,10.20
2013,06,09,05,17,10.20
2013,06,09,05,18,10.20
2013,06,09,05,19,10.20
2013,06,09,05,20,10.20
2013,06,09,05,21,10.20
2013,06,09,05,22,10.20
2013,06,09,05,23,10.20
2013,06,09,05,24,10.20
2013,06,09,05,25,10.20
2013,06,09,05,26,10.20
2013,06,09,05,27,10.20
2013,06,09,05,28,10.20
2013,06,09,05,29,10.20
2013,06,09,05,30,10.20
2013,06,09,05,31,10.20
2013,06,09,05,32,10.20
2013,06,09,05,33,10.20
2013,06,09,05,34,10.20
2013,06,09,05,35,10.20
2013,06,09,05,36,10.20
2013,06,09,05,37,10.20
2013,06,09,05,38,10.20
2013,06,09,05,39,10.20
2013,06,09,05,40,10.20
2013,06,09,05,41,10.20
2013,06,09,05,42,10.20
2013,06,09,05,43,10.20
2013,06,09,05,44,10.20
2013,06,09,05,45,10.20
2013,06,09,05,46,10.20
2013,06,09,05,47,10.20
2013,06,09,05,48,10.30
2013,06,09,05,49,10.30
2013,06,09,05,50,10.30
2013,06,09,05,51,10.30
2013,06,09,05,52,10.30
2013,06,09,05,53,10.30
2013,06,09,05,54,10.30
2013,06,09,05,55,10.30
2013,06,09,05,56,10.30
2013,06,09,05,57,10.30
2013,06,09,05,58,10.30
2013,06,09,05,59,10.30
2013,06,09,06,00,10.30
2013,06,09,06,01,10.30
2013,06,09,06,02,10.30
2013,06,09,06,03,10.30
2013,06,09,06,04,10.30
2013,06,09,06,05,10.30
2013,06,09,06,06,10.30
2013,06,09,06,07,10.40
2013,06,09,06,08,10.40
2013,06,09,06,09,10.40
2013,06,09,06,10,10.40
2013,06,09,06,11,10.40
2013,06,09,06,12,10.50
2013,06,09,06,13,10.50
2013,06,09,06,14,10.50
2013,06,09,06,15,10.50
2013,06,09,06,16,10.50
2013,06,09,06,17,10.50
2013,06,09,06,18,10.50
2013,06,09,06,19,10.50
2013,06,09,06,20,10.60
2013,06,09,06,21,10.60
2013,06,09,06,22,10.60
2013,06,09,06,23,10.60
2013,06,09,06,24,10.50
2013,06,09,06,25,10.50
2013,06,09,06,26,10.50
2013,06,09,06,27,10.50
2013,06,09,06,28,10.50
2013,06,09,06,29,10.50
2013,06,09,06,30,10.50
2013,06,09,06,31,10.40
2013,06,09,06,32,10.40
2013,06,09,06,33,10.40
2013,06,09,06,34,10.40
2013,06,09,06,35,10.40
2013,06,09,06,36,10.40
2013,06,09,06,37,10.40
2013,06,09,06,38,10.40
2013,06,09,06,39,10.40
2013,06,09,06,40,10.40
2013,06,09,06,41,10.40
2013,06,09,06,42,10.40
2013,06,09,06,43,10.40
2013,06,09,06,44,10.40
2013,06,09,06,45,10.40
2013,06,09,06,46,10.40
2013,06,09,06,47,10.50
2013,06,09,06,48,10.50
2013,06,09,06,49,10.50
2013,06,09,06,50,10.50
2013,06,09,06,51,10.50
2013,06,09,06,52,10.50
2013,06,09,06,53,10.50
2013,06,09,06,54,10.50
2013,06,09,06,55,10.50
2013,06,09,06,56,10.60
2013,06,09,06,57,10.60
2013,06,09,06,58,10.60
2013,06,09,06,59,10.60
2013,06,09,07,00,10.60
2013,06,09,07,01,10.60
2013,06,09,07,02,10.60
2013,06,09,07,03,10.60
2013,06,09,07,04,10.60
2013,06,09,07,05,10.60
2013,06,09,07,06,10.70
2013,06,09,07,07,10.70
2013,06,09,07,08,10.70
2013,06,09,07,09,10.70
2013,06,09,07,10,10.70
2013,06,09,07,11,10.70
2013,06,09,07,12,10.70
2013,06,09,07,13,10.70
2013,06,09,07,14,10.70
2013,06,09,07,15,10.70
2013,06,09,07,16,10.70
2013,06,09,07,17,10.80
2013,06,09,07,18,10.80
2013,06,09,07,19,10.80
2013,06,09,07,20,10.80
2013,06,09,07,21,10.80
2013,06,09,07,22,10.80
2013,06,09,07,23,10.90
2013,06,09,07,24,10.90
2013,06,09,07,25,10.90
2013,06,09,07,26,10.90
2013,06,09,07,27,10.90
2013,06,09,07,28,11.00
2013,06,09,07,29,11.00
2013,06,09,07,30,11.00
2013,06,09,07,31,11.10
2013,06,09,07,32,11.10
2013,06,09,07,33,11.10
2013,06,09,07,34,11.20
2013,06,09,07,35,11.20
2013,06,09,07,36,11.20
2013,06,09,07,37,11.20
2013,06,09,07,38,11.30
2013,06,09,07,39,11.30
2013,06,09,07,40,11.30
2013,06,09,07,41,11.30
2013,06,09,07,42,11.40
2013,06,09,07,43,11.40
2013,06,09,07,44,11.40
2013,06,09,07,45,11.40
2013,06,09,07,46,11.50
2013,06,09,07,47,11.50
2013,06,09,07,48,11.60
2013,06,09,07,49,11.60
2013,06,09,07,50,11.60
2013,06,09,07,51,11.60
2013,06,09,07,52,11.70
2013,06,09,07,53,11.70
2013,06,09,07,54,11.70
2013,06,09,07,55,11.80
2013,06,09,07,56,11.80
2013,06,09,07,57,11.80
2013,06,09,07,58,11.80
2013,06,09,07,59,11.90
2013,06,09,08,00,11.90
2013,06,09,08,01,11.90
2013,06,09,08,02,11.90
2013,06,09,08,03,12.00
2013,06,09,08,04,12.00
2013,06,09,08,05,12.00
2013,06,09,08,06,12.00
2013,06,09,08,07,12.10
2013,06,09,08,08,12.10
2013,06,09,08,09,12.10
2013,06,09,08,10,12.10
2013,06,09,08,11,12.10
2013,06,09,08,12,12.10
2013,06,09,08,13,12.10
2013,06,09,08,14,12.10
2013,06,09,08,15,12.20
2013,06,09,08,16,12.20
2013,06,09,08,17,12.30
2013,06,09,08,18,12.30
2013,06,09,08,19,12.30
2013,06,09,08,20,12.30
2013,06,09,08,21,12.30
2013,06,09,08,22,12.30
2013,06,09,08,23,12.30
2013,06,09,08,24,12.40
2013,06,09,08,25,12.40
2013,06,09,08,26,12.40
2013,06,09,08,27,12.40
2013,06,09,08,28,12.40
2013,06,09,08,29,12.40
2013,06,09,08,30,12.50
2013,06,09,08,31,12.50
2013,06,09,08,32,12.60
2013,06,09,08,33,12.60
2013,06,09,08,34,12.60
2013,06,09,08,35,12.60
2013,06,09,08,36,12.70
2013,06,09,08,37,12.70
2013,06,09,08,38,12.70
2013,06,09,08,39,12.70
2013,06,09,08,40,12.70
2013,06,09,08,41,12.80
2013,06,09,08,42,12.80
2013,06,09,08,43,12.80
2013,06,09,08,44,12.80
2013,06,09,08,45,12.80
2013,06,09,08,46,12.80
2013,06,09,08,47,12.80
2013,06,09,08,48,12.80
2013,06,09,08,49,12.80
2013,06,09,08,50,12.80
2013,06,09,08,51,12.80
2013,06,09,08,52,12.80
2013,06,09,08,53,12.80
2013,06,09,08,54,12.90
2013,06,09,08,55,12.90
2013,06,09,08,56,12.90
2013,06,09,08,57,12.90
2013,06,09,08,58,12.90
2013,06,09,08,59,13.00
2013,06,09,09,00,13.00
2013,06,09,09,01,13.10
2013,06,09,09,02,13.10
2013,06,09,09,03,13.20
2013,06,09,09,04,13.20
2013,06,09,09,05,13.20
2013,06,09,09,06,13.20
2013,06,09,09,07,13.20
2013,06,09,09,08,13.20
2013,06,09,09,09,13.20
2013,06,09,09,10,13.20
2013,06,09,09,11,13.20
2013,06,09,09,12,13.20
2013,06,09,09,13,13.20
2013,06,09,09,14,13.30
2013,06,09,09,15,13.30
2013,06,09,09,16,13.30
2013,06,09,09,17,13.30
2013,06,09,09,18,13.30
2013,06,09,09,19,13.30
2013,06,09,09,20,13.40
2013,06,09,09,21,13.40
2013,06,09,09,22,13.40
2013,06,09,09,23,13.40
2013,06,09,09,24,13.30
2013,06,09,09,25,13.30
2013,06,09,09,26,13.40
2013,06,09,09,27,13.40
2013,06,09,09,28,13.50
2013,06,09,09,29,13.50
2013,06,09,09,30,13.60
2013,06,09,09,31,13.70
2013,06,09,09,32,13.70
2013,06,09,09,33,13.80
2013,06,09,09,34,13.90
2013,06,09,09,35,14.00
2013,06,09,09,36,14.10
2013,06,09,09,37,14.10
2013,06,09,09,38,14.10
2013,06,09,09,39,14.00
2013,06,09,09,40,14.10
2013,06,09,09,41,14.00
2013,06,09,09,42,14.00
2013,06,09,09,43,14.00
2013,06,09,09,44,14.00
2013,06,09,09,45,14.00
2013,06,09,09,46,14.00
2013,06,09,09,47,14.00
2013,06,09,09,48,13.90
2013,06,09,09,49,13.90
2013,06,09,09,50,13.90
2013,06,09,09,51,13.90
2013,06,09,09,52,13.90
2013,06,09,09,53,13.90
2013,06,09,09,54,13.90
2013,06,09,09,55,13.90
2013,06,09,09,56,13.90
2013,06,09,09,57,13.90
2013,06,09,09,58,13.90
2013,06,09,09,59,13.90
2013,06,09,10,00,14.00
2013,06,09,10,01,14.00
2013,06,09,10,02,14.10
2013,06,09,10,03,14.20
2013,06,09,10,04,14.20
2013,06,09,10,05,14.30
2013,06,09,10,06,14.40
2013,06,09,10,07,14.50
2013,06,09,10,08,14.50
2013,06,09,10,09,14.60
2013,06,09,10,10,14.70
2013,06,09,10,11,14.80
2013,06,09,10,12,14.80
2013,06,09,10,13,14.90
2013,06,09,10,14,14.90
2013,06,09,10,15,14.90
2013,06,09,10,16,14.90
2013,06,09,10,17,14.80
2013,06,09,10,18,14.90
2013,06,09,10,19,14.90
2013,06,09,10,20,14.90
2013,06,09,10,21,15.00
2013,06,09,10,22,15.10
2013,06,09,10,23,15.30
2013,06,09,10,24,15.50
2013,06,09,10,25,15.60
2013,06,09,10,26,15.70
2013,06,09,10,27,15.80
2013,06,09,10,28,15.80
2013,06,09,10,29,15.90
2013,06,09,10,30,16.00
2013,06,09,10,31,16.00
2013,06,09,10,32,16.00
2013,06,09,10,33,15.90
2013,06,09,10,34,15.90
2013,06,09,10,35,15.80
2013,06,09,10,36,15.80
2013,06,09,10,37,15.80
2013,06,09,10,38,15.80
2013,06,09,10,39,15.80
2013,06,09,10,40,15.80
2013,06,09,10,41,15.80
2013,06,09,10,42,15.90
2013,06,09,10,43,15.90
2013,06,09,10,44,15.80
2013,06,09,10,45,15.90
2013,06,09,10,46,15.90
2013,06,09,10,47,16.00
2013,06,09,10,48,16.10
2013,06,09,10,49,16.10
2013,06,09,10,50,16.20
2013,06,09,10,51,16.30
2013,06,09,10,52,16.30
2013,06,09,10,53,16.30
2013,06,09,10,54,16.30
2013,06,09,10,55,16.30
2013,06,09,10,56,16.30
2013,06,09,10,57,16.30
2013,06,09,10,58,16.30
2013,06,09,10,59,16.30
2013,06,09,11,00,16.30
2013,06,09,11,01,16.30
2013,06,09,11,02,16.20
2013,06,09,11,03,16.20
2013,06,09,11,04,16.10
2013,06,09,11,05,16.10
2013,06,09,11,06,16.10
2013,06,09,11,07,16.10
2013,06,09,11,08,16.10
2013,06,09,11,09,16.00
2013,06,09,11,10,16.00
2013,06,09,11,11,15.90
2013,06,09,11,12,15.90
2013,06,09,11,13,15.90
2013,06,09,11,14,15.90
2013,06,09,11,15,15.90
2013,06,09,11,16,15.90
2013,06,09,11,17,15.90
2013,06,09,11,18,15.90
2013,06,09,11,19,15.90
2013,06,09,11,20,15.90
2013,06,09,11,21,16.00
2013,06,09,11,22,16.00
2013,06,09,11,23,16.00
2013,06,09,11,24,15.90
2013,06,09,11,25,15.90
2013,06,09,11,26,15.90
2013,06,09,11,27,15.90
2013,06,09,11,28,15.90
2013,06,09,11,29,15.90
2013,06,09,11,30,15.90
2013,06,09,11,31,16.00
2013,06,09,11,32,16.10
2013,06,09,11,33,16.10
2013,06,09,11,34,16.10
2013,06,09,11,35,16.10
2013,06,09,11,36,16.10
2013,06,09,11,37,16.20
2013,06,09,11,38,16.20
2013,06,09,11,39,16.30
2013,06,09,11,40,16.30
2013,06,09,11,41,16.40
2013,06,09,11,42,16.50
2013,06,09,11,43,16.50
2013,06,09,11,44,16.60
2013,06,09,11,45,16.60
2013,06,09,11,46,16.60
2013,06,09,11,47,16.50
2013,06,09,11,48,16.60
2013,06,09,11,49,16.60
2013,06,09,11,50,16.50
2013,06,09,11,51,16.50
2013,06,09,11,52,16.40
2013,06,09,11,53,16.40
2013,06,09,11,54,16.40
2013,06,09,11,55,16.30
2013,06,09,11,56,16.30
2013,06,09,11,57,16.30
2013,06,09,11,58,16.30
2013,06,09,11,59,16.30
2013,06,09,12,00,16.30
2013,06,09,12,01,16.40
2013,06,09,12,02,16.40
2013,06,09,12,03,16.50
2013,06,09,12,04,16.40
2013,06,09,12,05,16.40
2013,06,09,12,06,16.40
2013,06,09,12,07,16.30
2013,06,09,12,08,16.30
2013,06,09,12,09,16.30
2013,06,09,12,10,16.30
2013,06,09,12,11,16.40
2013,06,09,12,12,16.40
2013,06,09,12,13,16.40
2013,06,09,12,14,16.40
2013,06,09,12,15,16.40
2013,06,09,12,16,16.50
2013,06,09,12,17,16.50
2013,06,09,12,18,16.50
2013,06,09,12,19,16.50
2013,06,09,12,20,16.50
2013,06,09,12,21,16.50
2013,06,09,12,22,16.50
2013,06,09,12,23,16.50
2013,06,09,12,24,16.50
2013,06,09,12,25,16.50
2013,06,09,12,26,16.60
2013,06,09,12,27,16.60
2013,06,09,12,28,16.70
2013,06,09,12,29,16.70
2013,06,09,12,30,16.70
2013,06,09,12,31,16.70
2013,06,09,12,32,16.60
2013,06,09,12,33,16.50
2013,06,09,12,34,16.50
2013,06,09,12,35,16.40
2013,06,09,12,36,16.40
2013,06,09,12,37,16.50
2013,06,09,12,38,16.50
2013,06,09,12,39,16.60
2013,06,09,12,40,16.60
2013,06,09,12,41,16.60
2013,06,09,12,42,16.50
2013,06,09,12,43,16.50
2013,06,09,12,44,16.40
2013,06,09,12,45,16.30
2013,06,09,12,46,16.30
2013,06,09,12,47,16.30
2013,06,09,12,48,16.30
2013,06,09,12,49,16.30
2013,06,09,12,50,16.30
2013,06,09,12,51,16.30
2013,06,09,12,52,16.30
2013,06,09,12,53,16.30
2013,06,09,12,54,16.30
2013,06,09,12,55,16.30
2013,06,09,12,56,16.30
2013,06,09,12,57,16.30
2013,06,09,12,58,16.30
2013,06,09,12,59,16.30
2013,06,09,13,00,16.30
2013,06,09,13,01,16.40
2013,06,09,13,02,16.40
2013,06,09,13,03,16.40
2013,06,09,13,04,16.50
2013,06,09,13,05,16.60
2013,06,09,13,06,16.60
2013,06,09,13,07,16.60
2013,06,09,13,08,16.70
2013,06,09,13,09,16.70
2013,06,09,13,10,16.70
2013,06,09,13,11,16.80
2013,06,09,13,12,16.80
2013,06,09,13,13,16.80
2013,06,09,13,14,16.80
2013,06,09,13,15,16.90
2013,06,09,13,16,16.90
2013,06,09,13,17,16.90
2013,06,09,13,18,16.90
2013,06,09,13,19,16.90
2013,06,09,13,20,16.90
2013,06,09,13,21,16.80
2013,06,09,13,22,16.80
2013,06,09,13,23,16.80
2013,06,09,13,24,16.80
2013,06,09,13,25,16.80
2013,06,09,13,26,16.70
2013,06,09,13,27,16.60
2013,06,09,13,28,16.60
2013,06,09,13,29,16.50
2013,06,09,13,30,16.50
2013,06,09,13,31,16.50
2013,06,09,13,32,16.50
2013,06,09,13,33,16.50
2013,06,09,13,34,16.60
2013,06,09,13,35,16.60
2013,06,09,13,36,16.50
2013,06,09,13,37,16.50
2013,06,09,13,38,16.50
2013,06,09,13,39,16.50
2013,06,09,13,40,16.60
2013,06,09,13,41,16.60
2013,06,09,13,42,16.70
2013,06,09,13,43,16.70
2013,06,09,13,44,16.70
2013,06,09,13,45,16.70
2013,06,09,13,46,16.70
2013,06,09,13,47,16.70
2013,06,09,13,48,16.70
2013,06,09,13,49,16.60
2013,06,09,13,50,16.70
2013,06,09,13,51,16.70
2013,06,09,13,52,16.80
2013,06,09,13,53,16.80
2013,06,09,13,54,16.80
2013,06,09,13,55,16.80
2013,06,09,13,56,16.80
2013,06,09,13,57,16.80
2013,06,09,13,58,16.80
2013,06,09,13,59,16.80
2013,06,09,14,00,16.80
2013,06,09,14,01,16.80
2013,06,09,14,02,16.80
2013,06,09,14,03,16.80
2013,06,09,14,04,16.80
2013,06,09,14,05,16.80
2013,06,09,14,06,16.80
2013,06,09,14,07,16.80
2013,06,09,14,08,16.80
2013,06,09,14,09,16.80
2013,06,09,14,10,16.80
2013,06,09,14,11,16.70
2013,06,09,14,12,16.70
2013,06,09,14,13,16.70
2013,06,09,14,14,16.70
2013,06,09,14,15,16.70
2013,06,09,14,16,16.70
2013,06,09,14,17,16.70
2013,06,09,14,18,16.70
2013,06,09,14,19,16.70
2013,06,09,14,20,16.70
2013,06,09,14,21,16.60
2013,06,09,14,22,16.60
2013,06,09,14,23,16.60
2013,06,09,14,24,16.50
2013,06,09,14,25,16.50
2013,06,09,14,26,16.50
2013,06,09,14,27,16.50
2013,06,09,14,28,16.50
2013,06,09,14,29,16.50
2013,06,09,14,30,16.50
2013,06,09,14,31,16.50
2013,06,09,14,32,16.50
2013,06,09,14,33,16.60
2013,06,09,14,34,16.60
2013,06,09,14,35,16.60
2013,06,09,14,36,16.50
2013,06,09,14,37,16.50
2013,06,09,14,38,16.40
2013,06,09,14,39,16.40
2013,06,09,14,40,16.40
2013,06,09,14,41,16.30
2013,06,09,14,42,16.30
2013,06,09,14,43,16.30
2013,06,09,14,44,16.30
2013,06,09,14,45,16.30
2013,06,09,14,46,16.30
2013,06,09,14,47,16.30
2013,06,09,14,48,16.30
2013,06,09,14,49,16.30
2013,06,09,14,50,16.40
2013,06,09,14,51,16.40
2013,06,09,14,52,16.40
2013,06,09,14,53,16.50
2013,06,09,14,54,16.50
2013,06,09,14,55,16.50
2013,06,09,14,56,16.50
2013,06,09,14,57,16.50
2013,06,09,14,58,16.50
2013,06,09,14,59,16.50
2013,06,09,15,00,16.50
2013,06,09,15,01,16.50
2013,06,09,15,02,16.50
2013,06,09,15,03,16.60
2013,06,09,15,04,16.60
2013,06,09,15,05,16.60
2013,06,09,15,06,16.50
2013,06,09,15,07,16.50
2013,06,09,15,08,16.50
2013,06,09,15,09,16.50
2013,06,09,15,10,16.60
2013,06,09,15,11,16.50
2013,06,09,15,12,16.50
2013,06,09,15,13,16.50
2013,06,09,15,14,16.60
2013,06,09,15,15,16.60
2013,06,09,15,16,16.60
2013,06,09,15,17,16.60
2013,06,09,15,18,16.60
2013,06,09,15,19,16.60
2013,06,09,15,20,16.70
2013,06,09,15,21,16.70
2013,06,09,15,22,16.70
2013,06,09,15,23,16.70
2013,06,09,15,24,16.70
2013,06,09,15,25,16.70
2013,06,09,15,26,16.80
2013,06,09,15,27,16.80
2013,06,09,15,28,16.90
2013,06,09,15,29,16.90
2013,06,09,15,30,16.90
2013,06,09,15,31,17.00
2013,06,09,15,32,17.00
2013,06,09,15,33,17.00
2013,06,09,15,34,17.00
2013,06,09,15,35,17.00
2013,06,09,15,36,17.00
2013,06,09,15,37,17.00
2013,06,09,15,38,17.00
2013,06,09,15,39,16.90
2013,06,09,15,40,16.90
2013,06,09,15,41,16.90
2013,06,09,15,42,16.80
2013,06,09,15,43,16.80
2013,06,09,15,44,16.80
2013,06,09,15,45,16.80
2013,06,09,15,46,16.80
2013,06,09,15,47,16.80
2013,06,09,15,48,16.80
2013,06,09,15,49,16.80
2013,06,09,15,50,16.80
2013,06,09,15,51,16.80
2013,06,09,15,52,16.80
2013,06,09,15,53,16.80
2013,06,09,15,54,16.80
2013,06,09,15,55,16.80
2013,06,09,15,56,16.80
2013,06,09,15,57,16.80
2013,06,09,15,58,16.70
2013,06,09,15,59,16.70
2013,06,09,16,00,16.70
2013,06,09,16,01,16.70
2013,06,09,16,02,16.70
2013,06,09,16,03,16.70
2013,06,09,16,04,16.70
2013,06,09,16,05,16.70
2013,06,09,16,06,16.70
2013,06,09,16,07,16.70
2013,06,09,16,08,16.70
2013,06,09,16,09,16.70
2013,06,09,16,10,16.70
2013,06,09,16,11,16.80
2013,06,09,16,12,16.80
2013,06,09,16,13,16.80
2013,06,09,16,14,16.80
2013,06,09,16,15,16.90
2013,06,09,16,16,16.90
2013,06,09,16,17,16.90
2013,06,09,16,18,16.90
2013,06,09,16,19,16.90
2013,06,09,16,20,16.90
2013,06,09,16,21,16.90
2013,06,09,16,22,16.90
2013,06,09,16,23,16.90
2013,06,09,16,24,16.90
2013,06,09,16,25,16.90
2013,06,09,16,26,16.80
2013,06,09,16,27,16.80
2013,06,09,16,28,16.80
2013,06,09,16,29,16.80
2013,06,09,16,30,16.80
2013,06,09,16,31,16.80
2013,06,09,16,32,16.80
2013,06,09,16,33,16.90
2013,06,09,16,34,16.90
2013,06,09,16,35,16.90
2013,06,09,16,36,16.90
2013,06,09,16,37,16.90
2013,06,09,16,38,16.80
2013,06,09,16,39,16.80
2013,06,09,16,40,16.80
2013,06,09,16,41,16.90
2013,06,09,16,42,16.90
2013,06,09,16,43,16.90
2013,06,09,16,44,17.00
2013,06,09,16,45,17.00
2013,06,09,16,46,17.10
2013,06,09,16,47,17.10
2013,06,09,16,48,17.20
2013,06,09,16,49,17.20
2013,06,09,16,50,17.20
2013,06,09,16,51,17.20
2013,06,09,16,52,17.30
2013,06,09,16,53,17.30
2013,06,09,16,54,17.30
2013,06,09,16,55,17.40
2013,06,09,16,56,17.40
2013,06,09,16,57,17.40
2013,06,09,16,58,17.50
2013,06,09,16,59,17.60
2013,06,09,17,00,17.70
2013,06,09,17,01,17.70
2013,06,09,17,02,17.70
2013,06,09,17,03,17.80
2013,06,09,17,04,17.80
2013,06,09,17,05,17.70
2013,06,09,17,06,17.70
2013,06,09,17,07,17.70
2013,06,09,17,08,17.80
2013,06,09,17,09,17.80
2013,06,09,17,10,17.90
2013,06,09,17,11,18.00
2013,06,09,17,12,18.00
2013,06,09,17,13,18.00
2013,06,09,17,14,18.00
2013,06,09,17,15,17.90
2013,06,09,17,16,17.90
2013,06,09,17,17,17.90
2013,06,09,17,18,18.00
2013,06,09,17,19,18.00
2013,06,09,17,20,18.10
2013,06,09,17,21,18.10